Terminal Aerodrome Forecast
Issued by NWS Duluth, MN

Home | Current Version | Previous Version | Text Only | Print | Product List | Glossary On
Versions: 1 2 3 4 5 6 7 8 9 10 11 12 13 14 15 16 17 18 19 20 21 22 23 24 25 26
000
FTUS43 KDLH 210135 AAB
TAFINL
TAF AMD
KINL 210135Z 2102/2124 VRB03KT 2SM -SHRA BR OVC004
     FM210400 27009KT 3SM BR SCT004 BKN007
     FM210900 25004KT 3/4SM BR SCT002 OVC004
     FM211400 21005KT 3SM BR BKN010
     FM211600 20006KT P6SM SCT250=

USA.gov is the U.S. government's official web portal to all federal, state and local government web resources and services.